sat.trackr.live / text

‹ back to catalog

STARLINK-3624

NORAD 51773 · 2022-017F

PAYLOAD ACTIVE UNKNOWN

§ Identity

Operator
Country
US
Launch date
2022-02-25
Launch site
AFWTR
Launch vehicle
Mass (kg)
RCS (m²)

Purposes: comms

External: N2YO · Heavens-Above · Gunter

§ Orbital elements

Epoch: 2026-09-20T02:04:07.788000Z

Period
95.30 min
Inclination
53.1863°
Eccentricity
0.0002390
Mean motion
15.10989357 rev/d
Perigee alt
531.5 km
Apogee alt
534.8 km
Semi-major
6,911.3 km
B*
6.2415e-4
RAAN
185.3310°
Arg perigee
84.7296°
Mean anomaly
275.3969°
Rev number
25,196

§ Raw data

STARLINK-36241 51773U 22017F   26263.08620125  .00010260  00000+0  62415-3 0  99972 51773  53.1863 185.3310 0002390  84.7296 275.3969 15.10989357251964

JSON: /api/v1/satellites/51773 · /tle

For live sub-satellite position, see the globe view (requires WebGL).

§ Visibility from observer

Set your observer location to see the next 7 days of passes ≥ 10°. The values pass through the URL so the page stays shareable.

No JS? Fill the form by hand. The geolocation button needs JavaScript.